Time,TemperatureF,DewpointF,PressureIn,WindDirection,WindDirectionDegrees,WindSpeedMPH,WindSpeedGustMPH,Humidity,HourlyPrecipIn,Conditions,Clouds,dailyrainin,SoftwareType,DateUTC
2013-04-30 00:01:00,51.0,24.0,29.78,SW,214,9.0,17.0,34,0.00,,,0.00,,2013-04-30 06:01:00,
2013-04-30 00:12:00,52.0,25.0,29.79,SW,215,11.0,21.0,34,0.00,,,0.00,,2013-04-30 06:12:00,
2013-04-30 00:21:00,52.0,25.0,29.79,SW,215,11.0,21.0,34,0.00,,,0.00,,2013-04-30 06:21:00,
2013-04-30 00:31:00,52.0,25.0,29.79,SSW,202,14.0,24.0,34,0.00,,,0.00,,2013-04-30 06:31:00,
2013-04-30 00:41:00,52.0,25.0,29.79,SSW,202,14.0,24.0,34,0.00,,,0.00,,2013-04-30 06:41:00,
2013-04-30 00:52:00,51.0,24.0,29.79,SW,216,10.0,26.0,34,0.00,,,0.00,,2013-04-30 06:52:00,
2013-04-30 01:01:00,51.0,24.0,29.79,SW,222,14.0,25.0,35,0.00,,,0.00,,2013-04-30 07:01:00,
2013-04-30 01:11:00,51.0,24.0,29.79,SW,222,14.0,25.0,35,0.00,,,0.00,,2013-04-30 07:11:00,
2013-04-30 01:21:00,51.0,24.0,29.78,WSW,248,13.0,26.0,35,0.00,,,0.00,,2013-04-30 07:21:00,
2013-04-30 01:31:00,51.0,25.0,29.79,South,176,10.0,27.0,36,0.00,,,0.00,,2013-04-30 07:31:00,
2013-04-30 01:41:00,51.0,25.0,29.79,South,176,10.0,27.0,36,0.00,,,0.00,,2013-04-30 07:41:00,
2013-04-30 01:52:00,50.0,24.0,29.79,SSW,198,11.0,21.0,36,0.00,,,0.00,,2013-04-30 07:52:00,
2013-04-30 02:02:00,50.0,25.0,29.80,South,177,8.0,20.0,37,0.00,,,0.00,,2013-04-30 08:02:00,
2013-04-30 02:11:00,50.0,25.0,29.80,South,177,8.0,20.0,37,0.00,,,0.00,,2013-04-30 08:11:00,
2013-04-30 02:21:00,49.0,25.0,29.80,SSW,192,9.0,17.0,38,0.00,,,0.00,,2013-04-30 08:21:00,
2013-04-30 02:32:00,49.0,25.0,29.81,South,183,6.0,15.0,39,0.00,,,0.00,,2013-04-30 08:32:00,
2013-04-30 02:42:00,49.0,25.0,29.81,South,183,6.0,15.0,39,0.00,,,0.00,,2013-04-30 08:42:00,
2013-04-30 02:52:00,47.0,24.0,29.81,South,179,3.0,7.0,40,0.00,,,0.00,,2013-04-30 08:52:00,
2013-04-30 03:01:00,47.0,25.0,29.81,South,185,4.0,7.0,42,0.00,,,0.00,,2013-04-30 09:01:00,
2013-04-30 03:11:00,47.0,25.0,29.81,South,185,4.0,7.0,42,0.00,,,0.00,,2013-04-30 09:11:00,
2013-04-30 03:22:00,45.0,24.0,29.80,SSW,210,4.0,7.0,43,0.00,,,0.00,,2013-04-30 09:22:00,
2013-04-30 03:33:00,45.0,24.0,29.81,SW,231,6.0,11.0,43,0.00,,,0.00,,2013-04-30 09:33:00,
2013-04-30 03:43:00,45.0,24.0,29.81,SW,231,6.0,11.0,43,0.00,,,0.00,,2013-04-30 09:43:00,
2013-04-30 03:52:00,45.0,24.0,29.82,SSW,203,5.0,10.0,44,0.00,,,0.00,,2013-04-30 09:52:00,
2013-04-30 04:03:00,46.0,25.0,29.82,SSW,209,5.0,10.0,43,0.00,,,0.00,,2013-04-30 10:03:00,
2013-04-30 04:11:00,46.0,25.0,29.82,SSW,209,5.0,10.0,43,0.00,,,0.00,,2013-04-30 10:11:00,
2013-04-30 04:22:00,46.0,25.0,29.82,SW,223,5.0,7.0,44,0.00,,,0.00,,2013-04-30 10:22:00,
2013-04-30 04:32:00,46.0,27.0,29.82,West,279,4.0,13.0,47,0.00,,,0.00,,2013-04-30 10:32:00,
2013-04-30 04:41:00,46.0,27.0,29.82,West,279,4.0,13.0,47,0.00,,,0.00,,2013-04-30 10:41:00,
2013-04-30 04:52:00,45.0,28.0,29.81,SW,225,6.0,15.0,51,0.00,,,0.00,,2013-04-30 10:52:00,
2013-04-30 05:01:00,44.0,29.0,29.81,South,184,3.0,10.0,55,0.00,,,0.00,,2013-04-30 11:01:00,
2013-04-30 05:11:00,44.0,29.0,29.81,South,184,3.0,10.0,55,0.00,,,0.00,,2013-04-30 11:11:00,
2013-04-30 05:21:00,43.0,29.0,29.82,SSW,202,5.0,10.0,58,0.00,,,0.00,,2013-04-30 11:21:00,
2013-04-30 05:31:00,42.0,29.0,29.82,SSW,212,3.0,13.0,59,0.00,,,0.00,,2013-04-30 11:31:00,
2013-04-30 05:42:00,42.0,29.0,29.82,SSW,212,3.0,13.0,59,0.00,,,0.00,,2013-04-30 11:42:00,
2013-04-30 05:51:00,41.0,28.0,29.83,SW,217,4.0,7.0,60,0.00,,,0.00,,2013-04-30 11:51:00,
2013-04-30 06:01:00,43.0,29.0,29.85,South,171,7.0,14.0,58,0.00,,,0.00,,2013-04-30 12:01:00,
2013-04-30 06:11:00,43.0,29.0,29.85,South,171,7.0,14.0,58,0.00,,,0.00,,2013-04-30 12:11:00,
2013-04-30 06:21:00,41.0,28.0,29.83,South,184,4.0,11.0,60,0.00,,,0.00,,2013-04-30 12:21:00,
2013-04-30 06:31:00,39.0,27.0,29.83,SW,216,2.0,6.0,62,0.00,,,0.00,,2013-04-30 12:31:00,
2013-04-30 06:41:00,39.0,27.0,29.83,SW,216,2.0,6.0,62,0.00,,,0.00,,2013-04-30 12:41:00,
2013-04-30 06:51:00,41.0,29.0,29.85,SSW,205,4.0,10.0,61,0.00,,,0.00,,2013-04-30 12:51:00,
2013-04-30 07:01:00,40.0,28.0,29.85,SSW,205,2.0,10.0,62,0.00,,,0.00,,2013-04-30 13:01:00,
2013-04-30 07:11:00,40.0,28.0,29.85,SSW,205,2.0,10.0,62,0.00,,,0.00,,2013-04-30 13:11:00,
2013-04-30 07:21:00,41.0,29.0,29.85,SW,214,3.0,6.0,61,0.00,,,0.00,,2013-04-30 13:21:00,
2013-04-30 07:31:00,42.0,29.0,29.85,South,181,6.0,11.0,59,0.00,,,0.00,,2013-04-30 13:31:00,
2013-04-30 07:41:00,42.0,29.0,29.85,South,181,6.0,11.0,59,0.00,,,0.00,,2013-04-30 13:41:00,
2013-04-30 07:52:00,43.0,29.0,29.83,South,173,5.0,9.0,58,0.00,,,0.00,,2013-04-30 13:52:00,
2013-04-30 08:02:00,46.0,28.0,29.83,SSW,200,3.0,14.0,50,0.00,,,0.00,,2013-04-30 14:02:00,
2013-04-30 08:11:00,47.0,27.0,29.82,West,259,4.0,17.0,46,0.00,,,0.00,,2013-04-30 14:11:00,
2013-04-30 08:21:00,47.0,27.0,29.82,West,259,4.0,17.0,46,0.00,,,0.00,,2013-04-30 14:21:00,
2013-04-30 08:31:00,49.0,28.0,29.82,West,260,8.0,19.0,44,0.00,,,0.00,,2013-04-30 14:31:00,
2013-04-30 08:41:00,49.0,28.0,29.82,West,260,8.0,19.0,44,0.00,,,0.00,,2013-04-30 14:41:00,
2013-04-30 08:52:00,51.0,29.0,29.82,West,281,10.0,17.0,42,0.00,,,0.00,,2013-04-30 14:52:00,
2013-04-30 09:01:00,51.0,28.0,29.82,West,281,6.0,18.0,41,0.00,,,0.00,,2013-04-30 15:01:00,
2013-04-30 09:11:00,51.0,28.0,29.82,West,281,6.0,18.0,41,0.00,,,0.00,,2013-04-30 15:11:00,
2013-04-30 09:21:00,52.0,28.0,29.83,WSW,242,3.0,15.0,40,0.00,,,0.00,,2013-04-30 15:21:00,
2013-04-30 09:32:00,53.0,29.0,29.82,West,267,7.0,15.0,39,0.00,,,0.00,,2013-04-30 15:32:00,
2013-04-30 09:42:00,53.0,29.0,29.82,West,267,7.0,15.0,39,0.00,,,0.00,,2013-04-30 15:42:00,
2013-04-30 09:52:00,53.0,28.0,29.81,West,259,6.0,14.0,38,0.00,,,0.00,,2013-04-30 15:52:00,
2013-04-30 10:02:00,53.0,27.0,29.82,SSW,194,1.0,13.0,37,0.00,,,0.00,,2013-04-30 16:02:00,
2013-04-30 10:12:00,53.0,27.0,29.82,SSW,194,1.0,13.0,37,0.00,,,0.00,,2013-04-30 16:12:00,
2013-04-30 10:23:00,55.0,29.0,29.82,West,279,4.0,15.0,36,0.00,,,0.00,,2013-04-30 16:23:00,
2013-04-30 10:33:00,56.0,29.0,29.80,WSW,252,7.0,14.0,35,0.00,,,0.00,,2013-04-30 16:33:00,
2013-04-30 10:42:00,56.0,29.0,29.80,WSW,252,7.0,14.0,35,0.00,,,0.00,,2013-04-30 16:42:00,
2013-04-30 10:52:00,56.0,29.0,29.80,SSW,203,6.0,14.0,35,0.00,,,0.00,,2013-04-30 16:52:00,
2013-04-30 11:02:00,54.0,28.0,29.82,ENE,76,5.0,10.0,37,0.00,,,0.00,,2013-04-30 17:02:00,
2013-04-30 11:12:00,53.0,31.0,29.82,North,360,10.0,16.0,43,0.00,,,0.00,,2013-04-30 17:12:00,
2013-04-30 11:22:00,53.0,31.0,29.82,North,360,10.0,16.0,43,0.00,,,0.00,,2013-04-30 17:22:00,
2013-04-30 11:32:00,52.0,33.0,29.82,NE,56,7.0,17.0,48,0.00,,,0.00,,2013-04-30 17:32:00,
2013-04-30 11:42:00,51.0,33.0,29.82,ENE,67,7.0,16.0,49,0.00,,,0.00,,2013-04-30 17:42:00,
2013-04-30 11:52:00,51.0,33.0,29.82,ENE,67,7.0,16.0,49,0.00,,,0.00,,2013-04-30 17:52:00,
2013-04-30 12:01:00,48.0,33.0,29.85,ENE,75,10.0,14.0,55,0.00,,,0.00,,2013-04-30 18:01:00,
2013-04-30 12:11:00,47.0,32.0,29.85,ENE,61,10.0,16.0,55,0.00,,,0.00,,2013-04-30 18:11:00,
2013-04-30 12:22:00,47.0,32.0,29.85,ENE,61,10.0,16.0,55,0.00,,,0.00,,2013-04-30 18:22:00,
2013-04-30 12:32:00,45.0,32.0,29.85,ENE,71,10.0,15.0,61,0.00,,,0.00,,2013-04-30 18:32:00,
2013-04-30 12:41:00,43.0,31.0,29.86,ENE,67,11.0,16.0,63,0.00,,,0.00,,2013-04-30 18:41:00,
2013-04-30 12:52:00,43.0,31.0,29.86,ENE,67,11.0,16.0,63,0.00,,,0.00,,2013-04-30 18:52:00,
2013-04-30 13:01:00,43.0,32.0,29.86,ENE,70,8.0,12.0,65,0.00,,,0.00,,2013-04-30 19:01:00,
2013-04-30 13:11:00,43.0,32.0,29.86,ENE,65,9.0,13.0,65,0.00,,,0.00,,2013-04-30 19:11:00,
2013-04-30 13:21:00,43.0,32.0,29.86,ENE,65,9.0,13.0,65,0.00,,,0.00,,2013-04-30 19:21:00,
2013-04-30 13:32:00,43.0,32.0,29.85,ENE,71,7.0,11.0,65,0.00,,,0.00,,2013-04-30 19:32:00,
2013-04-30 13:42:00,43.0,32.0,29.86,NE,46,8.0,12.0,64,0.00,,,0.00,,2013-04-30 19:42:00,
2013-04-30 13:52:00,43.0,32.0,29.86,NE,46,8.0,12.0,64,0.00,,,0.00,,2013-04-30 19:52:00,
2013-04-30 14:02:00,43.0,31.0,29.86,NE,51,7.0,14.0,63,0.00,,,0.00,,2013-04-30 20:02:00,
2013-04-30 14:11:00,43.0,31.0,29.86,NE,51,7.0,14.0,63,0.00,,,0.00,,2013-04-30 20:11:00,
2013-04-30 14:21:00,43.0,31.0,29.86,NE,46,9.0,13.0,63,0.00,,,0.00,,2013-04-30 20:21:00,
2013-04-30 14:32:00,42.0,31.0,29.86,ENE,75,7.0,12.0,64,0.00,,,0.00,,2013-04-30 20:32:00,
2013-04-30 14:42:00,42.0,31.0,29.86,ENE,75,7.0,12.0,64,0.00,,,0.00,,2013-04-30 20:42:00,
2013-04-30 14:52:00,43.0,32.0,29.88,ENE,61,11.0,13.0,64,0.00,,,0.00,,2013-04-30 20:52:00,
2013-04-30 15:01:00,43.0,32.0,29.85,NE,56,10.0,15.0,66,0.00,,,0.00,,2013-04-30 21:01:00,
2013-04-30 15:11:00,42.0,33.0,29.86,NE,49,11.0,14.0,69,0.00,,,0.00,,2013-04-30 21:11:00,
2013-04-30 15:22:00,42.0,33.0,29.86,NE,49,11.0,14.0,69,0.00,,,0.00,,2013-04-30 21:22:00,
2013-04-30 15:32:00,41.0,33.0,29.88,NE,55,12.0,15.0,72,0.00,,,0.00,,2013-04-30 21:32:00,
2013-04-30 15:42:00,41.0,33.0,29.88,NE,55,12.0,15.0,72,0.00,,,0.00,,2013-04-30 21:42:00,
2013-04-30 15:53:00,40.0,31.0,29.85,NE,55,13.0,17.0,70,0.00,,,0.00,,2013-04-30 21:53:00,
2013-04-30 16:02:00,40.0,31.0,29.87,ENE,57,11.0,16.0,71,0.00,,,0.00,,2013-04-30 22:02:00,
2013-04-30 16:12:00,39.0,32.0,29.89,NE,55,11.0,17.0,77,0.00,,,0.00,,2013-04-30 22:12:00,
2013-04-30 16:23:00,39.0,32.0,29.89,NE,55,11.0,17.0,77,0.00,,,0.00,,2013-04-30 22:23:00,
2013-04-30 16:32:00,37.0,32.0,29.87,ENE,62,12.0,17.0,83,0.02,,,0.02,,2013-04-30 22:32:00,
2013-04-30 16:41:00,37.0,32.0,29.87,ENE,62,12.0,17.0,83,0.02,,,0.02,,2013-04-30 22:41:00,
2013-04-30 16:53:00,37.0,34.0,29.87,NE,53,8.0,16.0,87,0.03,,,0.03,,2013-04-30 22:53:00,
2013-04-30 17:02:00,36.0,33.0,29.90,NNE,33,10.0,14.0,87,0.04,,,0.04,,2013-04-30 23:02:00,
2013-04-30 17:12:00,34.0,31.0,29.91,North,5,12.0,18.0,89,0.04,,,0.04,,2013-04-30 23:12:00,
2013-04-30 17:21:00,34.0,31.0,29.91,North,5,12.0,18.0,89,0.04,,,0.04,,2013-04-30 23:21:00,
2013-04-30 17:32:00,32.0,29.0,29.91,NNE,17,10.0,14.0,90,0.03,,,0.05,,2013-04-30 23:32:00,
2013-04-30 17:42:00,32.0,29.0,29.91,NNE,17,10.0,14.0,90,0.03,,,0.05,,2013-04-30 23:42:00,
2013-04-30 17:52:00,32.0,29.0,29.91,NNE,30,6.0,11.0,90,0.02,,,0.05,,2013-04-30 23:52:00,
2013-04-30 18:01:00,32.0,30.0,29.95,NNE,33,2.0,6.0,91,0.01,,,0.05,,2013-05-01 00:01:00,
2013-04-30 18:11:00,32.0,30.0,29.95,NNE,33,2.0,6.0,91,0.01,,,0.05,,2013-05-01 00:11:00,
2013-04-30 18:21:00,32.0,30.0,29.97,NNE,33,0.0,0.0,92,0.01,,,0.05,,2013-05-01 00:21:00,
2013-04-30 18:32:00,32.0,30.0,29.96,NE,34,0.0,0.0,92,0.00,,,0.05,,2013-05-01 00:32:00,
2013-04-30 18:42:00,32.0,30.0,29.96,NE,34,0.0,0.0,92,0.00,,,0.05,,2013-05-01 00:42:00,
2013-04-30 18:52:00,32.0,30.0,29.97,NNE,33,0.0,0.0,92,0.00,,,0.05,,2013-05-01 00:52:00,
2013-04-30 19:01:00,32.0,30.0,29.96,NNE,33,0.0,0.0,92,0.00,,,0.05,,2013-05-01 01:01:00,
2013-04-30 19:11:00,32.0,30.0,29.96,NNE,33,0.0,0.0,92,0.00,,,0.05,,2013-05-01 01:11:00,
2013-04-30 19:21:00,32.0,30.0,29.98,NNE,33,0.0,0.0,92,0.00,,,0.05,,2013-05-01 01:21:00,
2013-04-30 19:31:00,32.0,30.0,29.98,NE,34,0.0,0.0,92,0.00,,,0.05,,2013-05-01 01:31:00,
2013-04-30 19:41:00,32.0,30.0,29.98,NE,34,0.0,0.0,92,0.00,,,0.05,,2013-05-01 01:41:00,
2013-04-30 19:52:00,32.0,30.0,29.98,NNE,33,0.0,0.0,92,0.00,,,0.05,,2013-05-01 01:52:00,
2013-04-30 20:02:00,32.0,30.0,29.98,West,265,0.0,0.0,93,0.00,,,0.05,,2013-05-01 02:02:00,
2013-04-30 20:11:00,32.0,30.0,29.98,WSW,248,0.0,0.0,93,0.00,,,0.05,,2013-05-01 02:11:00,
2013-04-30 20:21:00,32.0,30.0,29.98,WSW,248,0.0,0.0,93,0.00,,,0.05,,2013-05-01 02:21:00,
2013-04-30 20:32:00,32.0,30.0,30.00,WSW,246,0.0,0.0,93,0.00,,,0.05,,2013-05-01 02:32:00,
2013-04-30 20:42:00,32.0,30.0,30.00,WSW,246,0.0,0.0,93,0.00,,,0.05,,2013-05-01 02:42:00,
2013-04-30 20:52:00,32.0,30.0,30.01,SW,215,0.0,0.0,93,0.00,,,0.05,,2013-05-01 02:52:00,
2013-04-30 21:01:00,32.0,30.0,30.02,SSW,196,0.0,0.0,93,0.00,,,0.05,,2013-05-01 03:01:00,
2013-04-30 21:11:00,32.0,30.0,30.02,SSW,196,0.0,0.0,93,0.00,,,0.05,,2013-05-01 03:11:00,
2013-04-30 21:21:00,32.0,30.0,30.01,SSW,192,0.0,0.0,93,0.00,,,0.05,,2013-05-01 03:21:00,
2013-04-30 21:33:00,32.0,30.0,29.98,SSW,194,0.0,0.0,92,0.00,,,0.05,,2013-05-01 03:33:00,
2013-04-30 21:43:00,32.0,30.0,29.98,SSW,194,0.0,0.0,92,0.00,,,0.05,,2013-05-01 03:43:00,
2013-04-30 21:53:00,32.0,30.0,29.98,SSW,213,0.0,0.0,92,0.00,,,0.05,,2013-05-01 03:53:00,
2013-04-30 22:03:00,32.0,30.0,29.98,SSW,213,0.0,0.0,92,0.00,,,0.05,,2013-05-01 04:03:00,
2013-04-30 22:12:00,32.0,30.0,29.98,SSW,213,0.0,0.0,92,0.00,,,0.05,,2013-05-01 04:12:00,
2013-04-30 22:22:00,32.0,30.0,29.99,SSW,213,0.0,0.0,92,0.00,,,0.05,,2013-05-01 04:22:00,
2013-04-30 22:32:00,32.0,30.0,30.01,SSW,213,0.0,0.0,91,0.00,,,0.05,,2013-05-01 04:32:00,
2013-04-30 22:42:00,32.0,30.0,30.01,SSW,213,0.0,0.0,91,0.00,,,0.05,,2013-05-01 04:42:00,
2013-04-30 22:52:00,32.0,30.0,30.03,SSW,213,0.0,0.0,91,0.00,,,0.05,,2013-05-01 04:52:00,
2013-04-30 23:02:00,32.0,30.0,30.03,SSW,213,0.0,0.0,91,0.00,,,0.05,,2013-05-01 05:02:00,
2013-04-30 23:11:00,32.0,30.0,30.03,SSW,213,0.0,0.0,91,0.00,,,0.05,,2013-05-01 05:11:00,
2013-04-30 23:21:00,32.0,29.0,30.02,SW,230,0.0,0.0,90,0.00,,,0.05,,2013-05-01 05:21:00,
2013-04-30 23:32:00,33.0,30.0,30.01,WSW,242,0.0,0.0,89,0.00,,,0.05,,2013-05-01 05:32:00,
2013-04-30 23:42:00,33.0,29.0,30.02,WSW,248,0.0,0.0,86,0.00,,,0.05,,2013-05-01 05:42:00,
2013-04-30 23:52:00,33.0,29.0,30.02,WSW,248,0.0,0.0,86,0.00,,,0.05,,2013-05-01 05:52:00,